SCP
0 0 0 0 0 0 0 0 0 0 0 0 0 0 0 0 0 0 0 0 0 0 0 0 0 0 0 0 0 0 0 0 0 0 0 0 0 0 0 0 0 0 0 0 0 0 0 0 0
0 0 0 0 0 0 0 0 0 0 0 0 0 0 0 0 0 0 0 0 0 0 0 0 0 0 0 0 0 0 0 0 0 0 0 0 0 0 0 0 0 0 0 0 0 0 0 0 0
0 0 0 0 0 0 0 0 0 0 0 0 0 0 0 0 0 0 0 0 0 0 0 0 0 0 0 0 0 0 0 0 0 0 0 0 0 0 0 0 0 0 0 0 0 0 0 0 0
0 0 0 0 0 0 0 0 0 0 0 0 0 0 0 0 0 0 0 0 0 0 0 0 0 0 0 0 0 0 0 0 0 0 0 0 0 0 0 0 0 0 0 0 0 0 0 0 0
0 0 0 0 0 0 0 0 0 0 0 0 0 0 0 0 0 0 0 0 0 0 0 0 0 0 0 0 0 0 0 0 0 0 0 0 0 0 0 0 0 0 0 0 0 0 0 0 0
0 0 0 0 0 0 0 0 0 0 0 0 0 0 0 0 0 0 0 1 1 0 0 0 0 0 0 0 0 0 0 0 0 0 0 0 0 0 0 0 0 0 0 0 0 0 0 0 0
0 0 0 0 0 0 0 0 0 0 0 0 0 0 0 0 0 0 0 0 0 1 0 0 0 0 0 0 1 0 0 0 0 0 0 0 0 0 0 0 0 0 0 0 0 0 0 0 0
0 0 0 0 0 0 0 0 0 0 0 0 0 0 0 0 0 0 0 0 0 0 0 0 0 0 0 1 1 0 0 0 0 0 0 0 0 0 0 0 0 0 0 0 0 0 0 0 0
0 0 0 0 0 0 0 0 0 0 0 0 0 0 0 0 0 0 0 0 0 0 0 0 0 0 0 1 1 0 0 0 0 0 0 0 0 0 0 0 0 0 0 0 0 0 0 0 0
0 0 0 0 0 0 0 0 0 0 0 0 0 0 0 0 0 0 0 0 0 0 0 0 0 0 0 1 1 0 1 0 0 0 0 0 0 0 0 0 0 0 0 0 0 0 0 0 0
0 0 0 0 0 0 0 0 0 0 0 0 0 0 0 0 0 0 0 0 0 0 0 0 0 0 0 0 1 1 1 1 0 0 0 0 0 0 0 0 0 0 0 0 0 0 0 0 0
0 0 0 0 0 0 0 0 0 0 0 0 0 0 0 0 0 0 0 0 0 0 0 0 0 0 0 0 1 1 1 1 0 0 0 0 0 0 0 0 0 0 0 0 0 0 0 0 0
0 0 0 0 0 0 0 0 0 0 0 0 0 0 0 0 0 0 0 0 0 0 0 0 0 0 0 0 0 1 1 1 0 0 0 0 0 0 0 0 0 0 0 0 0 0 0 0 0
0 0 0 0 0 0 0 0 0 0 0 0 0 0 0 0 0 0 0 0 0 0 0 0 0 0 0 0 0 1 1 1 0 0 0 0 0 0 0 0 0 0 0 0 0 0 0 0 0
0 0 0 0 0 0 0 0 0 0 0 0 0 0 0 0 0 0 0 0 0 0 0 0 0 0 0 0 0 0 1 1 0 0 0 0 0 0 0 0 0 0 0 0 0 0 0 0 0
0 0 0 0 0 0 0 0 0 0 0 0 0 0 0 0 0 0 0 0 0 0 0 0 0 0 0 0 0 0 0 1 0 0 0 0 0 0 0 0 0 0 0 0 0 0 0 0 0
0 0 0 0 0 0 0 0 0 0 0 0 0 0 0 0 0 0 0 0 0 0 0 0 0 0 0 0 0 0 0 1 1 0 0 0 0 0 0 0 0 0 0 0 0 0 0 0 0
0 0 0 0 0 0 0 0 0 0 0 0 0 0 0 0 0 0 0 0 0 0 -0 -0 0 0 0 0 0 0 0 1 1 0 0 0 0 0 0 0 0 0 0 0 0 0 0 0 0
0 0 0 0 0 0 0 0 0 0 0 0 0 0 0 0 0 0 0 0 0 -0 0 0 0 0 0 0 0 0 0 1 1 0 0 0 0 0 0 0 0 0 0 0 0 0 0 0 0
0 0 0 0 0 0 0 0 0 0 0 0 0 0 -0 0 0 0 0 0 0 0 -0 0 0 0 0 0 0 0 0 1 1 0 0 0 0 0 0 0 0 0 0 0 0 0 0 0 0
0 0 0 0 0 0 0 0 0 0 0 0 0 0 0 0 -0 -0 0 0 0 0 0 0 0 0 0 0 0 0 1 1 0 0 0 0 0 0 0 0 0 0 0 0 0 0 0 0 0
0 0 0 0 0 0 0 0 0 0 0 0 0 0 0 0 0 0 0 0 0 0 0 0 0 0 0 0 0 0 1 1 0 0 0 0 0 0 0 0 0 0 0 0 0 0 0 0 0
0 0 0 0 0 0 0 0 0 0 0 0 0 0 0 0 0 0 0 0 0 0 0 0 0 -0 -0 0 0 0 0 0 0 0 0 0 0 0 0 0 0 0 0 0 0 0 0 0 0
0 0 0 0 0 0 0 0 0 0 0 0 0 0 0 0 0 0 0 0 0 0 0 -0 0 0 -0 -0 0 0 0 0 0 0 0 0 0 0 0 0 0 0 0 0 0 0 0 0 0
0 0 0 0 0 0 0 0 0 0 0 0 0 0 0 0 0 0 0 0 0 0 0 0 -0 -0 0 -0 -0 0 0 0 0 0 0 0 0 0 0 0 0 0 0 0 0 0 0 0 0
0 0 0 0 0 0 0 0 0 0 0 0 0 0 0 0 0 0 0 0 0 0 0 0 0 0 -0 0 -0 -0 0 0 0 0 0 0 0 0 0 0 0 0 0 0 0 0 0 0 -0
0 0 0 0 0 0 0 0 0 0 0 0 0 0 0 0 0 0 0 0 0 0 0 0 0 0 0 -0 -0 -0 0 0 0 0 0 0 0 0 0 0 0 0 0 0 0 0 -0 -0 -0
0 0 0 0 0 0 0 0 0 0 0 0 0 0 0 0 0 0 0 0 0 0 0 0 0 0 0 0 -0 -0 0 0 0 0 0 0 0 0 0 0 0 0 -0 -0 -0 -0 -0 -0 -0
0 0 0 0 0 0 0 0 0 0 0 0 0 0 0 0 0 0 0 0 0 0 0 0 0 0 0 0 0 0 0 -0 -0 0 0 -0 -0 -0 -0 -0 -0 -0 -0 -0 -0 -0 -0 -0 -0
0 0 0 0 0 0 0 0 0 0 0 0 0 0 0 0 0 0 0 0 0 0 0 0 -0 -0 -0 0 -0 0 0 0 0 -0 -0 -0 -0 -0 -0 -0 -0 0 0 -0 -0 -0 -0 -0 0
Wind_Speed_500mb
16 15 9 3 6 6 4 5 3 5 8 6 32 13 4 14 6 4 33 8 26 10 24 38 36 32 31 32 31 30 29 32 33 31 27 25 24 21 23 18 13 11 14 20 22 24 22 21 21
14 17 10 7 7 3 6 5 4 6 25 35 13 7 2 6 20 13 15 25 23 14 24 37 41 40 34 33 30 28 26 25 27 29 29 28 29 29 23 19 16 15 20 21 20 23 23 21 20
18 20 8 7 5 6 4 3 11 21 16 28 10 15 10 20 26 32 28 25 12 17 20 33 33 40 37 33 31 29 25 27 30 35 35 32 30 25 23 22 19 20 21 23 20 20 21 19 18
16 10 11 6 7 4 1 7 13 19 5 27 21 10 15 40 30 44 33 18 7 9 17 29 32 35 37 34 31 30 27 31 34 33 33 31 30 27 23 19 21 26 24 20 20 21 19 18 17
14 8 8 6 3 3 4 11 14 9 6 24 25 13 10 18 39 35 25 21 15 12 18 27 31 32 37 35 33 32 29 31 32 34 33 31 28 24 20 18 26 25 24 20 21 21 20 18 17
9 7 7 2 3 2 3 25 10 16 17 21 18 17 7 20 35 40 37 21 18 15 21 28 31 35 37 37 35 35 33 34 35 32 33 29 25 19 19 19 28 27 23 22 22 19 18 18 18
11 7 7 7 2 2 5 28 7 12 13 16 24 6 14 26 44 42 38 27 15 15 19 31 32 38 39 40 39 39 38 38 39 39 35 30 25 19 16 21 30 27 26 25 23 21 18 17 17
9 9 6 2 3 2 10 18 10 16 3 7 14 11 13 52 45 39 26 22 19 16 16 27 35 42 45 45 45 43 42 43 43 43 40 34 27 20 18 21 26 30 31 29 25 22 19 18 18
7 8 4 5 5 4 12 9 10 12 6 9 16 23 36 48 48 42 35 22 15 20 26 28 34 42 49 50 49 48 47 47 46 46 46 45 36 25 21 23 28 30 30 30 27 24 22 21 21
9 7 9 5 5 4 8 5 13 9 16 15 31 36 42 46 49 49 48 45 37 25 23 29 36 39 51 56 54 55 52 52 53 51 51 54 47 32 26 24 29 35 34 33 30 28 27 24 23
6 6 5 5 1 3 4 5 7 6 6 13 34 52 52 50 47 45 42 41 44 42 34 32 37 41 48 55 62 61 58 57 58 57 55 59 48 38 32 28 31 33 35 36 34 31 27 25 24
10 5 4 3 3 6 7 7 8 16 6 24 31 36 42 45 47 46 47 46 47 46 45 41 40 43 51 53 61 65 69 67 64 65 59 57 52 38 34 33 34 34 34 34 32 30 28 27 26
8 5 6 5 5 9 10 6 7 8 31 31 37 41 47 49 47 43 45 44 48 49 49 50 49 47 48 58 63 64 71 77 75 67 60 60 63 42 37 36 35 35 34 33 33 30 28 27 27
7 6 7 6 8 4 6 4 7 12 38 38 43 48 49 47 54 51 54 53 50 49 48 47 53 52 53 54 59 60 60 64 73 68 63 63 59 53 44 38 36 37 37 35 33 32 30 29 28
9 6 3 5 9 1 4 3 6 25 33 41 47 49 49 45 53 49 54 53 50 55 57 51 49 53 55 59 57 61 59 65 65 66 72 66 66 65 50 41 38 37 35 34 33 31 30 29 27
7 8 3 3 13 5 5 5 5 23 35 47 46 50 54 50 50 49 51 55 57 57 62 55 49 51 55 58 60 57 60 61 69 58 65 76 70 67 55 45 40 36 35 35 34 32 30 27 27
11 3 4 11 5 5 8 6 2 24 34 38 39 40 44 51 48 54 54 52 59 65 64 59 54 48 56 57 61 57 52 59 65 70 73 60 85 71 58 48 38 36 37 39 33 31 30 29 28
5 4 2 6 4 4 5 8 2 17 23 27 33 31 34 43 47 52 57 53 54 64 60 64 58 53 49 55 60 56 47 57 61 61 60 64 85 65 57 53 39 37 37 41 38 33 32 30 28
10 5 5 6 4 5 6 6 5 11 18 23 32 41 42 46 48 51 52 51 54 66 60 54 60 51 44 46 51 48 47 53 52 57 50 54 70 54 62 56 39 38 41 40 37 33 30 31 26
4 4 6 8 5 3 5 12 7 1 6 12 20 28 38 53 61 62 57 57 48 67 61 49 46 44 41 37 39 37 39 48 43 55 50 54 50 49 62 59 45 39 41 40 39 36 33 31 27
5 7 5 7 8 2 13 7 4 6 15 14 16 27 35 45 56 67 68 64 59 59 65 56 39 33 34 28 34 37 34 31 34 43 49 51 49 67 61 58 50 45 37 35 33 33 33 32 28
2 8 6 4 6 4 8 8 9 7 13 9 15 25 35 42 48 53 64 72 75 72 65 61 47 35 26 17 29 38 32 35 35 38 41 47 63 54 58 60 39 39 36 34 35 34 36 36 34
4 8 6 1 2 5 9 2 12 5 10 10 12 21 29 36 43 46 50 59 68 69 71 74 42 52 23 11 19 33 32 29 29 31 35 45 49 52 59 54 53 46 37 42 42 41 39 48 39
6 6 5 5 2 2 7 7 10 8 11 7 8 14 23 33 39 43 40 47 57 68 66 57 63 62 55 14 14 23 36 28 28 37 33 35 37 38 38 63 47 52 55 58 48 34 28 23 27
3 6 6 9 6 7 6 3 17 10 11 10 8 9 17 25 32 39 43 46 47 59 63 72 65 69 73 61 29 29 35 39 42 39 49 43 42 39 42 36 41 34 41 51 55 52 50 48 48
3 6 8 8 4 8 3 10 9 10 10 12 8 5 11 19 24 31 36 38 35 40 51 64 72 67 80 81 80 73 77 69 66 69 68 78 81 82 81 78 73 67 61 69 61 68 59 47 38
5 4 4 10 3 3 6 12 10 5 8 13 13 7 5 12 19 26 31 35 37 35 37 43 56 63 66 81 87 90 94 97 98 95 87 79 78 76 76 67 70 61 69 63 42 34 26 19 19
4 9 6 5 2 8 8 9 9 11 19 15 17 18 8 3 10 16 23 30 33 34 31 29 33 41 53 61 68 74 76 76 76 75 72 61 63 61 65 60 51 46 40 35 29 29 28 22 20
4 3 5 5 6 7 5 10 12 13 17 24 29 27 16 8 1 9 16 22 27 29 30 30 31 34 36 39 50 55 59 61 64 69 65 56 57 55 51 47 44 39 37 33 29 28 29 25 23
4 10 10 7 8 5 2 13 2 12 15 32 35 33 24 16 8 2 8 14 20 24 26 29 31 33 35 38 42 45 48 51 54 57 55 53 52 49 46 44 44 43 40 36 32 31 29 25 22
Wind_Direction_500mb
212 195 182 168 70 63 230 243 295 329 332 294 294 249 306 41 13 332 347 2 346 282 210 192 194 199 205 205 200 201 204 208 211 211 207 194 185 185 183 201 212 214 195 155 152 154 154 151 147
189 170 155 110 96 102 264 313 348 298 312 324 330 356 57 90 19 328 343 350 322 304 217 198 195 199 204 204 207 204 202 199 189 187 184 182 186 188 205 227 227 199 163 166 161 162 165 150 151
154 158 137 91 112 189 192 48 291 304 333 5 354 43 37 343 1 347 339 331 326 316 225 207 203 208 207 210 212 208 205 198 194 185 182 190 202 217 232 239 207 176 172 172 166 164 159 163 165
144 127 71 90 196 245 143 346 317 314 314 7 357 73 93 30 4 354 344 346 332 309 229 216 213 214 218 215 212 209 209 198 203 198 203 209 218 230 241 235 178 175 186 180 178 169 169 174 177
125 99 75 86 259 314 41 344 321 334 353 2 7 0 99 358 3 4 352 351 316 286 231 224 220 222 220 225 220 216 213 209 217 206 211 215 227 233 235 232 179 182 186 181 193 178 178 182 188
76 76 69 176 268 5 345 350 330 4 346 1 16 339 107 345 357 1 354 353 334 284 242 234 230 224 228 227 225 225 217 216 216 210 209 218 218 225 229 216 184 184 189 192 193 189 188 190 194
102 84 132 152 240 131 311 346 31 339 341 8 347 354 312 328 358 357 350 337 328 315 261 243 242 235 231 230 231 226 222 222 219 216 216 210 214 221 227 216 190 189 199 203 194 196 198 200 203
93 90 106 106 171 219 345 353 3 13 349 5 22 18 332 333 340 341 332 329 295 283 255 259 251 245 239 237 234 229 226 226 224 222 220 215 219 224 231 229 216 195 201 204 201 201 202 209 212
94 69 143 161 156 291 348 8 354 350 6 68 26 4 335 333 328 322 320 307 298 273 264 252 247 251 248 243 239 233 230 228 228 226 225 223 223 224 238 239 234 214 204 203 204 206 210 213 216
69 98 183 134 140 234 309 354 330 356 15 350 338 341 336 330 328 325 323 321 316 297 281 268 255 246 248 250 245 239 235 230 229 228 228 226 231 223 245 247 244 236 216 206 204 210 215 218 220
50 122 148 175 123 282 343 53 20 12 26 344 323 330 333 333 331 327 317 311 304 299 288 278 271 256 248 247 247 244 241 236 231 231 230 229 220 227 234 251 251 250 223 214 210 216 220 224 225
89 81 100 123 11 41 10 328 101 67 345 330 329 335 335 340 344 342 334 321 308 292 285 278 269 263 254 247 245 247 245 239 235 231 230 228 225 223 235 250 254 250 242 224 219 223 229 230 232
85 165 101 80 44 56 5 22 191 47 354 347 346 347 343 343 345 343 340 328 319 303 286 277 277 267 260 250 248 247 250 245 236 227 229 228 227 231 243 251 253 248 239 228 228 229 233 238 239
117 134 130 58 29 90 25 69 157 351 348 354 354 349 348 345 346 345 345 342 335 323 305 284 271 268 262 259 248 247 253 253 254 240 226 231 231 237 241 246 250 247 243 238 236 239 242 245 244
98 94 350 38 4 113 25 54 32 349 356 356 353 351 349 349 343 346 346 338 332 324 320 310 289 268 260 256 258 246 244 247 255 229 226 225 231 235 238 242 245 246 242 239 236 240 246 246 246
61 59 42 345 7 9 22 285 360 4 359 356 355 353 347 342 348 344 340 344 337 327 321 316 306 285 268 255 251 251 245 246 245 234 241 228 226 231 233 234 240 239 236 236 242 244 248 250 249
20 126 7 325 77 327 47 277 132 13 4 360 358 349 347 347 347 344 341 349 352 336 325 317 307 297 278 261 251 246 240 241 248 249 235 236 234 228 229 230 233 234 231 234 243 243 251 253 256
203 104 253 247 305 345 269 265 161 14 5 360 354 340 344 343 344 344 347 346 347 345 332 324 315 301 288 267 254 245 235 233 242 250 250 238 226 221 226 230 231 229 233 232 236 244 246 253 258
125 137 202 252 257 310 229 288 334 12 2 351 353 4 358 354 347 358 360 355 358 356 349 330 316 307 294 278 252 248 237 230 232 241 245 245 243 228 224 225 225 226 236 234 238 245 245 249 253
105 115 283 293 287 222 325 292 200 207 286 302 327 354 1 4 7 7 2 359 358 355 356 346 321 311 291 273 254 230 236 232 228 236 240 240 237 209 229 219 223 230 233 231 230 235 244 249 245
172 152 234 243 320 264 324 326 298 259 274 286 342 344 352 1 10 19 11 5 5 356 6 2 345 318 298 269 249 224 227 224 222 228 234 246 227 220 221 217 218 225 231 235 236 240 246 253 250
241 185 187 296 30 290 20 287 289 257 284 269 321 346 359 1 356 359 6 13 15 15 6 359 1 2 313 257 232 210 215 223 225 232 235 233 242 220 226 207 206 224 225 229 236 240 243 245 250
170 152 184 233 150 310 336 84 268 333 278 277 312 344 356 359 2 1 2 15 21 17 13 14 13 23 19 269 204 203 192 206 224 207 201 201 219 229 211 213 213 215 213 230 234 242 243 237 241
147 123 54 61 97 348 248 113 278 198 210 257 280 344 1 2 7 12 15 17 21 20 21 14 23 36 41 128 121 189 178 187 181 179 187 200 198 199 212 208 209 224 229 235 229 198 167 132 122
114 71 338 352 9 227 182 85 247 230 224 219 257 339 4 7 7 12 14 24 21 10 15 21 24 48 54 87 121 127 148 171 163 153 145 133 137 151 149 195 166 143 124 114 100 102 93 96 91
162 167 155 228 269 291 155 237 251 209 200 220 234 314 360 2 11 12 16 15 8 13 16 23 30 40 66 75 100 111 112 116 117 117 124 115 114 111 109 105 103 104 103 97 97 93 96 100 110
166 188 156 109 48 4 217 278 279 158 211 213 228 250 323 358 9 13 16 19 21 26 31 25 33 44 57 69 80 92 100 102 103 103 99 95 95 93 99 95 105 100 94 96 96 104 101 100 96
179 155 73 11 40 296 279 272 242 214 225 217 219 220 234 332 2 21 17 21 26 33 41 43 43 46 49 68 78 86 93 96 99 100 98 96 97 104 101 102 98 96 99 101 107 107 106 102 98
147 206 69 119 151 193 292 263 214 218 204 200 207 202 200 208 313 23 26 26 29 34 47 55 61 66 69 67 74 83 84 87 92 98 102 103 103 106 104 108 109 106 105 103 103 101 94 91 82
226 208 169 141 216 227 155 270 237 236 216 197 194 195 191 193 192 48 34 37 33 40 48 58 65 66 68 76 82 87 93 94 96 99 100 104 105 108 108 108 108 105 104 102 97 89 83 75 66
Wind_Speed_850mb
16 15 9 3 6 6 4 5 3 5 8 6 32 13 4 14 6 4 33 8 26 10 24 38 36 32 31 32 31 30 29 32 33 31 27 25 24 21 23 18 13 11 14 20 22 24 22 21 21
14 17 10 7 7 3 6 5 4 6 25 35 13 7 2 6 20 13 15 25 23 14 24 37 41 40 34 33 30 28 26 25 27 29 29 28 29 29 23 19 16 15 20 21 20 23 23 21 20
18 20 8 7 5 6 4 3 11 21 16 28 10 15 10 20 26 32 28 25 12 17 20 33 33 40 37 33 31 29 25 27 30 35 35 32 30 25 23 22 19 20 21 23 20 20 21 19 18
16 10 11 6 7 4 1 7 13 19 5 27 21 10 15 40 30 44 33 18 7 9 17 29 32 35 37 34 31 30 27 31 34 33 33 31 30 27 23 19 21 26 24 20 20 21 19 18 17
14 8 8 6 3 3 4 11 14 9 6 24 25 13 10 18 39 35 25 21 15 12 18 27 31 32 37 35 33 32 29 31 32 34 33 31 28 24 20 18 26 25 24 20 21 21 20 18 17
9 7 7 2 3 2 3 25 10 16 17 21 18 17 7 20 35 40 37 21 18 15 21 28 31 35 37 37 35 35 33 34 35 32 33 29 25 19 19 19 28 27 23 22 22 19 18 18 18
11 7 7 7 2 2 5 28 7 12 13 16 24 6 14 26 44 42 38 27 15 15 19 31 32 38 39 40 39 39 38 38 39 39 35 30 25 19 16 21 30 27 26 25 23 21 18 17 17
9 9 6 2 3 2 10 18 10 16 3 7 14 11 13 52 45 39 26 22 19 16 16 27 35 42 45 45 45 43 42 43 43 43 40 34 27 20 18 21 26 30 31 29 25 22 19 18 18
7 8 4 5 5 4 12 9 10 12 6 9 16 23 36 48 48 42 35 22 15 20 26 28 34 42 49 50 49 48 47 47 46 46 46 45 36 25 21 23 28 30 30 30 27 24 22 21 21
9 7 9 5 5 4 8 5 13 9 16 15 31 36 42 46 49 49 48 45 37 25 23 29 36 39 51 56 54 55 52 52 53 51 51 54 47 32 26 24 29 35 34 33 30 28 27 24 23
6 6 5 5 1 3 4 5 7 6 6 13 34 52 52 50 47 45 42 41 44 42 34 32 37 41 48 55 62 61 58 57 58 57 55 59 48 38 32 28 31 33 35 36 34 31 27 25 24
10 5 4 3 3 6 7 7 8 16 6 24 31 36 42 45 47 46 47 46 47 46 45 41 40 43 51 53 61 65 69 67 64 65 59 57 52 38 34 33 34 34 34 34 32 30 28 27 26
8 5 6 5 5 9 10 6 7 8 31 31 37 41 47 49 47 43 45 44 48 49 49 50 49 47 48 58 63 64 71 77 75 67 60 60 63 42 37 36 35 35 34 33 33 30 28 27 27
7 6 7 6 8 4 6 4 7 12 38 38 43 48 49 47 54 51 54 53 50 49 48 47 53 52 53 54 59 60 60 64 73 68 63 63 59 53 44 38 36 37 37 35 33 32 30 29 28
9 6 3 5 9 1 4 3 6 25 33 41 47 49 49 45 53 49 54 53 50 55 57 51 49 53 55 59 57 61 59 65 65 66 72 66 66 65 50 41 38 37 35 34 33 31 30 29 27
7 8 3 3 13 5 5 5 5 23 35 47 46 50 54 50 50 49 51 55 57 57 62 55 49 51 55 58 60 57 60 61 69 58 65 76 70 67 55 45 40 36 35 35 34 32 30 27 27
11 3 4 11 5 5 8 6 2 24 34 38 39 40 44 51 48 54 54 52 59 65 64 59 54 48 56 57 61 57 52 59 65 70 73 60 85 71 58 48 38 36 37 39 33 31 30 29 28
5 4 2 6 4 4 5 8 2 17 23 27 33 31 34 43 47 52 57 53 54 64 60 64 58 53 49 55 60 56 47 57 61 61 60 64 85 65 57 53 39 37 37 41 38 33 32 30 28
10 5 5 6 4 5 6 6 5 11 18 23 32 41 42 46 48 51 52 51 54 66 60 54 60 51 44 46 51 48 47 53 52 57 50 54 70 54 62 56 39 38 41 40 37 33 30 31 26
4 4 6 8 5 3 5 12 7 1 6 12 20 28 38 53 61 62 57 57 48 67 61 49 46 44 41 37 39 37 39 48 43 55 50 54 50 49 62 59 45 39 41 40 39 36 33 31 27
5 7 5 7 8 2 13 7 4 6 15 14 16 27 35 45 56 67 68 64 59 59 65 56 39 33 34 28 34 37 34 31 34 43 49 51 49 67 61 58 50 45 37 35 33 33 33 32 28
2 8 6 4 6 4 8 8 9 7 13 9 15 25 35 42 48 53 64 72 75 72 65 61 47 35 26 17 29 38 32 35 35 38 41 47 63 54 58 60 39 39 36 34 35 34 36 36 34
4 8 6 1 2 5 9 2 12 5 10 10 12 21 29 36 43 46 50 59 68 69 71 74 42 52 23 11 19 33 32 29 29 31 35 45 49 52 59 54 53 46 37 42 42 41 39 48 39
6 6 5 5 2 2 7 7 10 8 11 7 8 14 23 33 39 43 40 47 57 68 66 57 63 62 55 14 14 23 36 28 28 37 33 35 37 38 38 63 47 52 55 58 48 34 28 23 27
3 6 6 9 6 7 6 3 17 10 11 10 8 9 17 25 32 39 43 46 47 59 63 72 65 69 73 61 29 29 35 39 42 39 49 43 42 39 42 36 41 34 41 51 55 52 50 48 48
3 6 8 8 4 8 3 10 9 10 10 12 8 5 11 19 24 31 36 38 35 40 51 64 72 67 80 81 80 73 77 69 66 69 68 78 81 82 81 78 73 67 61 69 61 68 59 47 38
5 4 4 10 3 3 6 12 10 5 8 13 13 7 5 12 19 26 31 35 37 35 37 43 56 63 66 81 87 90 94 97 98 95 87 79 78 76 76 67 70 61 69 63 42 34 26 19 19
4 9 6 5 2 8 8 9 9 11 19 15 17 18 8 3 10 16 23 30 33 34 31 29 33 41 53 61 68 74 76 76 76 75 72 61 63 61 65 60 51 46 40 35 29 29 28 22 20
4 3 5 5 6 7 5 10 12 13 17 24 29 27 16 8 1 9 16 22 27 29 30 30 31 34 36 39 50 55 59 61 64 69 65 56 57 55 51 47 44 39 37 33 29 28 29 25 23
4 10 10 7 8 5 2 13 2 12 15 32 35 33 24 16 8 2 8 14 20 24 26 29 31 33 35 38 42 45 48 51 54 57 55 53 52 49 46 44 44 43 40 36 32 31 29 25 22
Wind_Direction_850mb
212 195 182 168 70 63 230 243 295 329 332 294 294 249 306 41 13 332 347 2 346 282 210 192 194 199 205 205 200 201 204 208 211 211 207 194 185 185 183 201 212 214 195 155 152 154 154 151 147
189 170 155 110 96 102 264 313 348 298 312 324 330 356 57 90 19 328 343 350 322 304 217 198 195 199 204 204 207 204 202 199 189 187 184 182 186 188 205 227 227 199 163 166 161 162 165 150 151
154 158 137 91 112 189 192 48 291 304 333 5 354 43 37 343 1 347 339 331 326 316 225 207 203 208 207 210 212 208 205 198 194 185 182 190 202 217 232 239 207 176 172 172 166 164 159 163 165
144 127 71 90 196 245 143 346 317 314 314 7 357 73 93 30 4 354 344 346 332 309 229 216 213 214 218 215 212 209 209 198 203 198 203 209 218 230 241 235 178 175 186 180 178 169 169 174 177
125 99 75 86 259 314 41 344 321 334 353 2 7 0 99 358 3 4 352 351 316 286 231 224 220 222 220 225 220 216 213 209 217 206 211 215 227 233 235 232 179 182 186 181 193 178 178 182 188
76 76 69 176 268 5 345 350 330 4 346 1 16 339 107 345 357 1 354 353 334 284 242 234 230 224 228 227 225 225 217 216 216 210 209 218 218 225 229 216 184 184 189 192 193 189 188 190 194
102 84 132 152 240 131 311 346 31 339 341 8 347 354 312 328 358 357 350 337 328 315 261 243 242 235 231 230 231 226 222 222 219 216 216 210 214 221 227 216 190 189 199 203 194 196 198 200 203
93 90 106 106 171 219 345 353 3 13 349 5 22 18 332 333 340 341 332 329 295 283 255 259 251 245 239 237 234 229 226 226 224 222 220 215 219 224 231 229 216 195 201 204 201 201 202 209 212
94 69 143 161 156 291 348 8 354 350 6 68 26 4 335 333 328 322 320 307 298 273 264 252 247 251 248 243 239 233 230 228 228 226 225 223 223 224 238 239 234 214 204 203 204 206 210 213 216
69 98 183 134 140 234 309 354 330 356 15 350 338 341 336 330 328 325 323 321 316 297 281 268 255 246 248 250 245 239 235 230 229 228 228 226 231 223 245 247 244 236 216 206 204 210 215 218 220
50 122 148 175 123 282 343 53 20 12 26 344 323 330 333 333 331 327 317 311 304 299 288 278 271 256 248 247 247 244 241 236 231 231 230 229 220 227 234 251 251 250 223 214 210 216 220 224 225
89 81 100 123 11 41 10 328 101 67 345 330 329 335 335 340 344 342 334 321 308 292 285 278 269 263 254 247 245 247 245 239 235 231 230 228 225 223 235 250 254 250 242 224 219 223 229 230 232
85 165 101 80 44 56 5 22 191 47 354 347 346 347 343 343 345 343 340 328 319 303 286 277 277 267 260 250 248 247 250 245 236 227 229 228 227 231 243 251 253 248 239 228 228 229 233 238 239
117 134 130 58 29 90 25 69 157 351 348 354 354 349 348 345 346 345 345 342 335 323 305 284 271 268 262 259 248 247 253 253 254 240 226 231 231 237 241 246 250 247 243 238 236 239 242 245 244
98 94 350 38 4 113 25 54 32 349 356 356 353 351 349 349 343 346 346 338 332 324 320 310 289 268 260 256 258 246 244 247 255 229 226 225 231 235 238 242 245 246 242 239 236 240 246 246 246
61 59 42 345 7 9 22 285 360 4 359 356 355 353 347 342 348 344 340 344 337 327 321 316 306 285 268 255 251 251 245 246 245 234 241 228 226 231 233 234 240 239 236 236 242 244 248 250 249
20 126 7 325 77 327 47 277 132 13 4 360 358 349 347 347 347 344 341 349 352 336 325 317 307 297 278 261 251 246 240 241 248 249 235 236 234 228 229 230 233 234 231 234 243 243 251 253 256
203 104 253 247 305 345 269 265 161 14 5 360 354 340 344 343 344 344 347 346 347 345 332 324 315 301 288 267 254 245 235 233 242 250 250 238 226 221 226 230 231 229 233 232 236 244 246 253 258
125 137 202 252 257 310 229 288 334 12 2 351 353 4 358 354 347 358 360 355 358 356 349 330 316 307 294 278 252 248 237 230 232 241 245 245 243 228 224 225 225 226 236 234 238 245 245 249 253
105 115 283 293 287 222 325 292 200 207 286 302 327 354 1 4 7 7 2 359 358 355 356 346 321 311 291 273 254 230 236 232 228 236 240 240 237 209 229 219 223 230 233 231 230 235 244 249 245
172 152 234 243 320 264 324 326 298 259 274 286 342 344 352 1 10 19 11 5 5 356 6 2 345 318 298 269 249 224 227 224 222 228 234 246 227 220 221 217 218 225 231 235 236 240 246 253 250
241 185 187 296 30 290 20 287 289 257 284 269 321 346 359 1 356 359 6 13 15 15 6 359 1 2 313 257 232 210 215 223 225 232 235 233 242 220 226 207 206 224 225 229 236 240 243 245 250
170 152 184 233 150 310 336 84 268 333 278 277 312 344 356 359 2 1 2 15 21 17 13 14 13 23 19 269 204 203 192 206 224 207 201 201 219 229 211 213 213 215 213 230 234 242 243 237 241
147 123 54 61 97 348 248 113 278 198 210 257 280 344 1 2 7 12 15 17 21 20 21 14 23 36 41 128 121 189 178 187 181 179 187 200 198 199 212 208 209 224 229 235 229 198 167 132 122
114 71 338 352 9 227 182 85 247 230 224 219 257 339 4 7 7 12 14 24 21 10 15 21 24 48 54 87 121 127 148 171 163 153 145 133 137 151 149 195 166 143 124 114 100 102 93 96 91
162 167 155 228 269 291 155 237 251 209 200 220 234 314 360 2 11 12 16 15 8 13 16 23 30 40 66 75 100 111 112 116 117 117 124 115 114 111 109 105 103 104 103 97 97 93 96 100 110
166 188 156 109 48 4 217 278 279 158 211 213 228 250 323 358 9 13 16 19 21 26 31 25 33 44 57 69 80 92 100 102 103 103 99 95 95 93 99 95 105 100 94 96 96 104 101 100 96
179 155 73 11 40 296 279 272 242 214 225 217 219 220 234 332 2 21 17 21 26 33 41 43 43 46 49 68 78 86 93 96 99 100 98 96 97 104 101 102 98 96 99 101 107 107 106 102 98
147 206 69 119 151 193 292 263 214 218 204 200 207 202 200 208 313 23 26 26 29 34 47 55 61 66 69 67 74 83 84 87 92 98 102 103 103 106 104 108 109 106 105 103 103 101 94 91 82
226 208 169 141 216 227 155 270 237 236 216 197 194 195 191 193 192 48 34 37 33 40 48 58 65 66 68 76 82 87 93 94 96 99 100 104 105 108 108 108 108 105 104 102 97 89 83 75 66